TimePDT,TemperatureF,Dew PointF,Humidity,Sea Level PressureIn,VisibilityMPH,Wind Direction,Wind SpeedMPH,Gust SpeedMPH,PrecipitationIn,Events,Conditions,WindDirDegrees,DateUTC
1:36 AM,53.6,46.4,77,30.09,10.0,SW,5.8,-,N/A,,Overcast,230,2012-10-09 08:36:00
1:53 AM,53.1,46.9,80,30.10,10.0,SW,4.6,-,N/A,,Overcast,220,2012-10-09 08:53:00
2:17 AM,53.6,46.4,77,30.09,10.0,SSW,3.5,-,N/A,,Overcast,210,2012-10-09 09:17:00
2:53 AM,53.1,48.0,83,30.11,10.0,SSE,4.6,-,N/A,,Overcast,160,2012-10-09 09:53:00
3:53 AM,52.0,46.9,83,30.11,10.0,SSE,9.2,-,N/A,,Overcast,160,2012-10-09 10:53:00
4:53 AM,52.0,46.0,80,30.10,10.0,SSE,6.9,-,N/A,,Overcast,150,2012-10-09 11:53:00
5:53 AM,52.0,46.0,80,30.11,10.0,Calm,Calm,-,N/A,,Overcast,0,2012-10-09 12:53:00
6:53 AM,52.0,46.0,80,30.11,10.0,South,3.5,-,N/A,,Overcast,190,2012-10-09 13:53:00
7:53 AM,52.0,46.0,80,30.12,10.0,Calm,Calm,-,N/A,,Overcast,0,2012-10-09 14:53:00
8:53 AM,53.1,46.0,77,30.13,10.0,Calm,Calm,-,N/A,,Overcast,0,2012-10-09 15:53:00
9:53 AM,53.1,46.0,77,30.14,10.0,SSE,3.5,-,N/A,,Overcast,150,2012-10-09 16:53:00
10:53 AM,53.1,46.0,77,30.14,10.0,Calm,Calm,-,N/A,,Overcast,0,2012-10-09 17:53:00
11:53 AM,54.0,46.0,75,30.14,10.0,Calm,Calm,-,N/A,,Overcast,0,2012-10-09 18:53:00
12:53 PM,54.0,46.9,77,30.13,10.0,SE,3.5,-,N/A,,Overcast,130,2012-10-09 19:53:00
1:53 PM,55.0,46.9,74,30.12,10.0,South,3.5,-,N/A,,Overcast,190,2012-10-09 20:53:00
2:53 PM,55.0,46.9,74,30.11,10.0,West,8.1,-,N/A,,Overcast,260,2012-10-09 21:53:00
3:24 PM,55.4,46.4,72,30.09,10.0,SSW,8.1,-,N/A,,Scattered Clouds,210,2012-10-09 22:24:00
3:53 PM,55.9,46.9,72,30.09,10.0,SSW,9.2,-,N/A,,Clear,200,2012-10-09 22:53:00
4:53 PM,55.0,46.9,74,30.08,10.0,SW,9.2,-,N/A,,Clear,230,2012-10-09 23:53:00
5:53 PM,54.0,46.9,77,30.06,10.0,SW,10.4,-,N/A,,Clear,230,2012-10-10 00:53:00
6:53 PM,53.1,48.0,83,30.06,10.0,West,6.9,-,N/A,,Clear,260,2012-10-10 01:53:00
7:53 PM,51.1,46.9,86,30.06,10.0,Calm,Calm,-,N/A,,Clear,0,2012-10-10 02:53:00
8:53 PM,51.1,46.0,83,30.06,10.0,NW,6.9,-,N/A,,Clear,310,2012-10-10 03:53:00
9:53 PM,48.9,45.0,86,30.06,10.0,Calm,Calm,-,N/A,,Clear,0,2012-10-10 04:53:00
10:53 PM,48.0,45.0,89,30.07,10.0,Calm,Calm,-,N/A,,Clear,0,2012-10-10 05:53:00
11:53 PM,46.9,44.1,90,30.06,8.0,Calm,Calm,-,N/A,,Clear,0,2012-10-10 06:53:00